| time (UTC) | temp C | wind direction | speed KPH | gust KPH | rain 1hr cm | rain 24hr cm | rain mn cm | humidity % | barometer mb |
| 20260901001701 | 25 | 62 | 0.0 | 0.0 | 0.00 | 0.58 | 0.03 | 92 | 1015.8 |
| 20260901000923 | 25 | 62 | 0.0 | 0.0 | 0.00 | 0.64 | 0.03 | 92 | 1015.7 |
| 20260901000422 | 25 | 62 | 0.0 | 0.0 | 0.00 | 0.71 | 0.03 | 91 | 1015.8 |
| 20260901000204 | 25 | 62 | 0.0 | 0.0 | 0.00 | 0.79 | 0.03 | 91 | 1015.9 |
| 20260831235422 | 25 | 62 | 0.0 | 0.0 | 0.00 | 0.89 | 0.03 | 91 | 1015.8 |
| 20260831234921 | 25 | 62 | 0.0 | 0.0 | 0.00 | 0.99 | 0.03 | 90 | 1015.8 |
| 20260831234420 | 25 | 62 | 0.0 | 0.0 | 0.00 | 1.09 | 0.03 | 90 | 1015.8 |
| 20260831234200 | 26 | 62 | 0.0 | 0.0 | 0.00 | 1.19 | 0.03 | 89 | 1015.7 |
| 20260831233452 | 26 | 62 | 0.0 | 0.0 | 0.00 | 1.30 | 0.03 | 88 | 1015.8 |
| 20260831233441 | 26 | 62 | 0.0 | 0.0 | 0.00 | 1.27 | 0.03 | 89 | 1015.8 |
| 20260831232420 | 26 | 62 | 0.0 | 0.0 | 0.00 | 1.30 | 0.03 | 87 | 1015.8 |
| 20260831231919 | 26 | 62 | 0.0 | 0.0 | 0.00 | 1.30 | 0.03 | 87 | 1015.8 |
| 20260831231419 | 27 | 62 | 0.0 | 0.0 | 0.00 | 1.30 | 0.03 | 86 | 1015.8 |
| 20260831230919 | 27 | 62 | 0.0 | 0.0 | 0.00 | 1.30 | 0.03 | 86 | 1015.9 |
| 20260831230419 | 27 | 62 | 0.0 | 0.0 | 0.00 | 1.30 | 0.03 | 86 | 1015.9 |
| 20260831225919 | 27 | 62 | 0.0 | 0.0 | 0.00 | 1.30 | 0.03 | 87 | 1015.9 |
| 20260831225420 | 27 | 62 | 0.0 | 0.0 | 0.00 | 1.30 | 0.03 | 87 | 1015.9 |
| 20260831224919 | 27 | 62 | 0.0 | 0.0 | 0.00 | 1.30 | 0.03 | 86 | 1016.0 |
| 20260831224418 | 27 | 62 | 0.0 | 0.0 | 0.00 | 1.30 | 0.03 | 87 | 1016.0 |
| 20260831224159 | 27 | 62 | 0.0 | 0.0 | 0.00 | 1.30 | 0.03 | 86 | 1016.1 |
| 20260831223420 | 27 | 62 | 0.0 | 0.0 | 0.00 | 1.30 | 0.03 | 86 | 1016.2 |
| 20260831222918 | 27 | 62 | 0.0 | 0.0 | 0.00 | 1.30 | 0.03 | 85 | 1016.2 |
| 20260831222659 | 27 | 62 | 0.0 | 0.0 | 0.00 | 1.30 | 0.03 | 84 | 1016.3 |
| 20260831221918 | 27 | 62 | 0.0 | 0.0 | 0.00 | 1.30 | 0.03 | 84 | 1016.5 |
| 20260831221417 | 27 | 62 | 0.0 | 0.0 | 0.00 | 1.30 | 0.03 | 85 | 1016.5 |
| 20260831221157 | 27 | 62 | 0.0 | 0.0 | 0.00 | 1.30 | 0.03 | 84 | 1016.5 |
| 20260831220417 | 27 | 62 | 0.0 | 0.0 | 0.00 | 1.30 | 0.03 | 85 | 1016.6 |
| 20260831215917 | 27 | 62 | 0.0 | 0.0 | 0.00 | 1.30 | 0.03 | 84 | 1016.5 |
| 20260831215417 | 27 | 62 | 0.0 | 0.0 | 0.00 | 1.30 | 0.03 | 84 | 1016.6 |
| 20260831214918 | 27 | 62 | 0.0 | 0.0 | 0.00 | 1.30 | 0.03 | 84 | 1016.4 |
| 20260831214420 | 27 | 62 | 0.0 | 0.0 | 0.00 | 1.30 | 0.03 | 83 | 1016.5 |
| 20260831213918 | 27 | 62 | 0.0 | 0.0 | 0.00 | 1.30 | 0.03 | 85 | 1016.4 |
| 20260831213417 | 28 | 62 | 0.0 | 0.0 | 0.00 | 1.30 | 0.03 | 83 | 1016.4 |
| 20260831212917 | 27 | 62 | 0.0 | 0.0 | 0.00 | 1.30 | 0.03 | 84 | 1016.5 |
| 20260831212440 | 27 | 62 | 0.0 | 0.0 | 0.00 | 1.30 | 0.03 | 85 | 1016.5 |
| 20260831212431 | 27 | 62 | 0.0 | 0.0 | 0.00 | 1.30 | 0.03 | 85 | 1016.5 |
| 20260831211417 | 27 | 62 | 0.0 | 0.0 | 0.00 | 1.30 | 0.03 | 84 | 1016.5 |
| 20260831210916 | 28 | 62 | 0.0 | 0.0 | 0.00 | 1.30 | 0.03 | 83 | 1016.5 |
| 20260831210416 | 28 | 62 | 0.0 | 0.0 | 0.00 | 1.30 | 0.03 | 83 | 1016.5 |
| 20260831205914 | 28 | 62 | 0.0 | 0.0 | 0.00 | 1.30 | 0.03 | 83 | 1016.5 |
| 20260831205405 | 28 | 62 | 0.0 | 0.0 | 0.00 | 1.30 | 0.03 | 83 | 1016.5 |
| 20260831204904 | 28 | 62 | 0.0 | 0.0 | 0.00 | 1.30 | 0.03 | 83 | 1016.4 |
| 20260831204403 | 28 | 76 | 0.0 | 0.0 | 0.00 | 1.30 | 0.03 | 80 | 1016.4 |
| 20260831204142 | 28 | 76 | 0.0 | 0.0 | 0.00 | 1.30 | 0.03 | 80 | 1016.4 |
| 20260831203403 | 28 | 76 | 0.0 | 1.6 | 0.00 | 1.30 | 0.03 | 80 | 1016.5 |
| 20260831202904 | 28 | 76 | 0.0 | 1.6 | 0.00 | 1.30 | 0.03 | 80 | 1016.5 |
| 20260831202726 | 28 | 76 | 0.0 | 1.6 | 0.00 | 1.30 | 0.03 | 80 | 1016.4 |
| 20260831202720 | 28 | 76 | 0.0 | 1.6 | 0.00 | 1.30 | 0.03 | 81 | 1016.4 |
| 20260831202429 | 28 | 76 | 0.0 | 1.6 | 0.00 | 1.30 | 0.03 | 80 | 1016.5 |
| 20260831200901 | 28 | 56 | 0.0 | 1.6 | 0.00 | 1.30 | 0.03 | 79 | 1016.4 |
| 20260831200402 | 29 | 56 | 0.0 | 1.6 | 0.00 | 1.30 | 0.03 | 79 | 1016.5 |
| 20260831195902 | 29 | 56 | 0.0 | 0.0 | 0.00 | 1.30 | 0.03 | 78 | 1016.5 |
| 20260831195405 | 29 | 73 | 0.0 | 1.6 | 0.00 | 1.30 | 0.03 | 76 | 1016.5 |
| 20260831194833 | 28 | 73 | 0.0 | 1.6 | 0.00 | 1.30 | 0.03 | 77 | 1016.5 |
| 20260831194332 | 28 | 73 | 0.0 | 1.6 | 0.00 | 1.30 | 0.03 | 79 | 1016.4 |
| 20260831193831 | 28 | 73 | 0.0 | 0.0 | 0.00 | 1.30 | 0.03 | 82 | 1016.5 |
| 20260831193332 | 28 | 73 | 0.0 | 0.0 | 0.00 | 1.30 | 0.03 | 81 | 1016.5 |
| 20260831192832 | 28 | 73 | 0.0 | 0.0 | 0.00 | 1.30 | 0.03 | 80 | 1016.6 |
| 20260831192332 | 28 | 73 | 0.0 | 0.0 | 0.00 | 1.30 | 0.03 | 79 | 1016.5 |
| 20260831191827 | 28 | 73 | 0.0 | 0.0 | 0.00 | 1.30 | 0.03 | 77 | 1016.7 |
| 20260831191314 | 29 | 73 | 0.0 | 0.0 | 0.00 | 1.30 | 0.03 | 76 | 1016.8 |
| 20260831190814 | 29 | 73 | 0.0 | 0.0 | 0.00 | 1.30 | 0.03 | 74 | 1016.8 |
| 20260831190546 | 30 | 73 | 0.0 | 1.6 | 0.00 | 1.30 | 0.03 | 73 | 1016.9 |
| 20260831185806 | 30 | 73 | 0.0 | 1.6 | 0.00 | 1.30 | 0.03 | 75 | 1016.9 |
| 20260831185306 | 30 | 73 | 0.0 | 3.2 | 0.00 | 1.30 | 0.03 | 72 | 1017.0 |
| 20260831184804 | 30 | 73 | 0.0 | 4.8 | 0.00 | 1.30 | 0.03 | 73 | 1017.0 |
| 20260831184304 | 30 | 73 | 1.6 | 4.8 | 0.00 | 1.30 | 0.03 | 72 | 1017.1 |
| 20260831183805 | 30 | 312 | 1.6 | 3.2 | 0.00 | 1.30 | 0.03 | 71 | 1017.0 |
| 20260831183305 | 30 | 312 | 1.6 | 4.8 | 0.00 | 1.30 | 0.03 | 71 | 1017.0 |
| 20260831182804 | 30 | 32 | 1.6 | 4.8 | 0.00 | 1.30 | 0.03 | 74 | 1017.1 |
| 20260831182305 | 30 | 281 | 1.6 | 4.8 | 0.00 | 1.30 | 0.03 | 74 | 1017.1 |
| 20260831181803 | 30 | 97 | 0.0 | 1.6 | 0.00 | 1.30 | 0.03 | 75 | 1017.0 |
| 20260831181303 | 30 | 97 | 0.0 | 1.6 | 0.00 | 1.30 | 0.03 | 75 | 1017.1 |
| 20260831180804 | 30 | 97 | 0.0 | 1.6 | 0.00 | 1.30 | 0.03 | 75 | 1017.0 |
| 20260831180303 | 30 | 97 | 0.0 | 4.8 | 0.00 | 1.30 | 0.03 | 71 | 1017.0 |
| 20260831175803 | 30 | 118 | 0.0 | 4.8 | 0.00 | 1.30 | 0.03 | 70 | 1017.1 |
| 20260831175542 | 31 | 172 | 0.0 | 1.6 | 0.00 | 1.30 | 0.03 | 72 | 1017.1 |
| 20260831174802 | 31 | 173 | 1.6 | 3.2 | 0.00 | 1.30 | 0.03 | 71 | 1017.2 |
| 20260831174543 | 30 | 0 | 1.6 | 3.2 | 0.00 | 1.30 | 0.03 | 70 | 1017.1 |
| 20260831173827 | 30 | 94 | 0.0 | 3.2 | 0.00 | 1.30 | 0.03 | 76 | 1017.3 |
| 20260831173817 | 30 | 109 | 1.6 | 3.2 | 0.00 | 1.30 | 0.03 | 71 | 1017.2 |
| 20260831172802 | 28 | 93 | 0.0 | 3.2 | 0.00 | 1.30 | 0.03 | 76 | 1017.4 |
| 20260831172305 | 29 | 93 | 0.0 | 3.2 | 0.00 | 1.30 | 0.03 | 76 | 1017.4 |
| 20260831171802 | 29 | 93 | 0.0 | 3.2 | 0.00 | 1.30 | 0.03 | 74 | 1017.4 |
| 20260831171305 | 29 | 92 | 1.6 | 3.2 | 0.00 | 1.30 | 0.03 | 76 | 1017.4 |
| 20260831170804 | 29 | 93 | 1.6 | 4.8 | 0.00 | 1.30 | 0.03 | 77 | 1017.4 |
| 20260831170605 | 30 | 90 | 1.6 | 4.8 | 0.00 | 1.30 | 0.03 | 72 | 1017.3 |
| 20260831170316 | 29 | 93 | 1.6 | 4.8 | 0.00 | 1.30 | 0.03 | 75 | 1017.3 |
| 20260831165305 | 30 | 71 | 0.0 | 3.2 | 0.00 | 1.30 | 0.03 | 74 | 1017.6 |
| 20260831164803 | 30 | 71 | 0.0 | 1.6 | 0.00 | 1.30 | 0.03 | 75 | 1017.7 |
| 20260831164543 | 29 | 68 | 0.0 | 3.2 | 0.00 | 1.30 | 0.03 | 77 | 1017.8 |
| 20260831163803 | 29 | 68 | 0.0 | 3.2 | 0.00 | 1.30 | 0.03 | 77 | 1017.9 |
| 20260831163304 | 28 | 41 | 0.0 | 3.2 | 0.00 | 1.30 | 0.03 | 77 | 1017.8 |
| 20260831162803 | 28 | 41 | 1.6 | 6.4 | 0.00 | 1.30 | 0.03 | 78 | 1018.0 |
| 20260831162542 | 28 | 99 | 0.0 | 6.4 | 0.00 | 1.30 | 0.03 | 75 | 1017.9 |
| 20260831161800 | 29 | 54 | 1.6 | 4.8 | 0.00 | 1.30 | 0.03 | 76 | 1018.0 |
| 20260831161259 | 30 | 71 | 0.0 | 6.4 | 0.00 | 1.30 | 0.03 | 74 | 1018.0 |
| 20260831160759 | 30 | 39 | 4.8 | 6.4 | 0.00 | 1.30 | 0.03 | 79 | 1018.0 |
| 20260831160300 | 28 | 83 | 3.2 | 4.8 | 0.00 | 1.30 | 0.03 | 80 | 1018.1 |
| 20260831155758 | 28 | 264 | 0.0 | 4.8 | 0.00 | 1.30 | 0.03 | 78 | 1018.2 |
| 20260831155259 | 29 | 258 | 1.6 | 4.8 | 0.00 | 1.30 | 0.03 | 76 | 1018.0 |
| 20260831154758 | 30 | 61 | 1.6 | 4.8 | 0.00 | 1.30 | 0.03 | 76 | 1017.9 |
| 20260831154258 | 29 | 42 | 0.0 | 4.8 | 0.00 | 1.30 | 0.03 | 77 | 1017.9 |
| 20260831153757 | 29 | 35 | 1.6 | 9.7 | 0.00 | 1.30 | 0.03 | 76 | 1017.8 |
| 20260831153258 | 29 | 94 | 1.6 | 9.7 | 0.00 | 1.30 | 0.03 | 75 | 1017.8 |
| 20260831152757 | 30 | 49 | 3.2 | 6.4 | 0.00 | 1.30 | 0.03 | 77 | 1017.7 |
| 20260831152258 | 29 | 106 | 1.6 | 6.4 | 0.00 | 1.30 | 0.03 | 77 | 1017.7 |
| 20260831151758 | 28 | 114 | 3.2 | 9.7 | 0.00 | 1.30 | 0.03 | 79 | 1017.7 |
| 20260831151541 | 28 | 100 | 1.6 | 9.7 | 0.00 | 1.30 | 0.03 | 80 | 1017.7 |
| 20260831151036 | 28 | 38 | 3.2 | 6.4 | 0.00 | 1.30 | 0.03 | 81 | 1017.7 |
| 20260831150536 | 27 | 104 | 1.6 | 6.4 | 0.00 | 1.30 | 0.03 | 82 | 1017.7 |
| 20260831145756 | 28 | 125 | 1.6 | 6.4 | 0.00 | 1.30 | 0.03 | 80 | 1017.9 |
| 20260831145256 | 27 | 49 | 3.2 | 6.4 | 0.00 | 1.30 | 0.03 | 81 | 1018.1 |
| 20260831144756 | 27 | 341 | 3.2 | 8.0 | 0.00 | 1.30 | 0.03 | 83 | 1018.0 |
| 20260831144258 | 27 | 272 | 1.6 | 8.0 | 0.00 | 1.30 | 0.03 | 85 | 1018.0 |
| 20260831143756 | 26 | 94 | 1.6 | 4.8 | 0.00 | 1.30 | 0.03 | 86 | 1018.0 |
| 20260831143256 | 27 | 103 | 0.0 | 0.0 | 0.00 | 1.30 | 0.03 | 83 | 1017.9 |
| 20260831142822 | 28 | 54 | 0.0 | 4.8 | 0.00 | 1.30 | 0.03 | 82 | 1017.8 |
| 20260831142812 | 27 | 103 | 0.0 | 4.8 | 0.00 | 1.30 | 0.03 | 82 | 1017.8 |
| 20260831141757 | 27 | 52 | 3.2 | 4.8 | 0.00 | 1.30 | 0.03 | 84 | 1017.7 |
| 20260831141256 | 27 | 80 | 1.6 | 4.8 | 0.00 | 1.30 | 0.03 | 83 | 1017.7 |
| 20260831140755 | 26 | 63 | 1.6 | 4.8 | 0.00 | 1.30 | 0.03 | 84 | 1017.7 |
| 20260831140256 | 26 | 37 | 1.6 | 4.8 | 0.00 | 1.30 | 0.03 | 86 | 1017.7 |
| 20260831135757 | 26 | 79 | 1.6 | 4.8 | 0.00 | 1.30 | 0.03 | 86 | 1017.6 |
| 20260831135255 | 26 | 63 | 1.6 | 4.8 | 0.00 | 1.30 | 0.03 | 88 | 1017.8 |
| 20260831134755 | 25 | 52 | 1.6 | 3.2 | 0.00 | 1.30 | 0.03 | 88 | 1017.8 |
| 20260831134256 | 25 | 52 | 1.6 | 3.2 | 0.00 | 1.30 | 0.03 | 88 | 1017.9 |
| 20260831133754 | 25 | 52 | 1.6 | 3.2 | 0.00 | 1.30 | 0.03 | 87 | 1017.8 |
| 20260831133255 | 25 | 52 | 0.0 | 4.8 | 0.00 | 1.30 | 0.03 | 86 | 1017.7 |
| 20260831132755 | 25 | 52 | 3.2 | 6.4 | 0.00 | 1.30 | 0.03 | 88 | 1017.7 |
| 20260831132254 | 25 | 52 | 3.2 | 6.4 | 0.00 | 1.30 | 0.03 | 90 | 1017.9 |
| 20260831131756 | 25 | 55 | 0.0 | 4.8 | 0.00 | 1.30 | 0.03 | 93 | 1017.8 |
| 20260831131254 | 24 | 55 | 1.6 | 4.8 | 0.00 | 1.30 | 0.03 | 95 | 1017.8 |
| 20260831130755 | 23 | 75 | 1.6 | 4.8 | 0.00 | 1.30 | 0.03 | 96 | 1017.7 |
| 20260831130254 | 23 | 75 | 1.6 | 4.8 | 0.00 | 1.30 | 0.03 | 97 | 1017.7 |
| 20260831130058 | 22 | 90 | 0.0 | 0.0 | 0.00 | 1.30 | 0.03 | 97 | 1017.9 |
| 20260831125810 | 23 | 90 | 0.0 | 0.0 | 0.00 | 1.30 | 0.03 | 97 | 1017.8 |
| 20260831124755 | 22 | 90 | 0.0 | 0.0 | 0.00 | 1.30 | 0.03 | 97 | 1017.9 |
| 20260831124254 | 22 | 90 | 0.0 | 0.0 | 0.00 | 1.30 | 0.03 | 97 | 1017.9 |
| 20260831123754 | 22 | 90 | 0.0 | 0.0 | 0.00 | 1.30 | 0.03 | 97 | 1017.9 |
| 20260831123253 | 22 | 90 | 0.0 | 0.0 | 0.00 | 1.30 | 0.03 | 97 | 1017.8 |
| 20260831122754 | 22 | 90 | 0.0 | 0.0 | 0.00 | 1.30 | 0.03 | 97 | 1017.8 |
| 20260831122254 | 21 | 90 | 0.0 | 1.6 | 0.00 | 1.30 | 0.03 | 97 | 1017.7 |
| 20260831121753 | 21 | 90 | 0.0 | 1.6 | 0.00 | 1.30 | 0.03 | 97 | 1017.6 |
| 20260831121318 | 21 | 90 | 0.0 | 0.0 | 0.00 | 1.30 | 0.03 | 97 | 1017.5 |
| 20260831121309 | 21 | 90 | 0.0 | 0.0 | 0.00 | 1.30 | 0.03 | 97 | 1017.5 |
| 20260831120253 | 21 | 90 | 0.0 | 0.0 | 0.00 | 1.30 | 0.03 | 97 | 1017.4 |
| 20260831115753 | 21 | 90 | 0.0 | 1.6 | 0.00 | 1.30 | 0.03 | 97 | 1017.5 |
| 20260831115534 | 21 | 90 | 0.0 | 1.6 | 0.00 | 1.30 | 0.03 | 97 | 1017.5 |
| 20260831114752 | 20 | 90 | 0.0 | 0.0 | 0.00 | 1.30 | 0.03 | 97 | 1017.5 |
| 20260831114322 | 20 | 90 | 0.0 | 0.0 | 0.00 | 1.30 | 0.03 | 97 | 1017.4 |
| 20260831114311 | 20 | 90 | 0.0 | 0.0 | 0.00 | 1.30 | 0.03 | 97 | 1017.4 |
| 20260831113533 | 20 | 90 | 0.0 | 0.0 | 0.00 | 1.30 | 0.03 | 97 | 1017.2 |
| 20260831113033 | 20 | 90 | 0.0 | 0.0 | 0.00 | 1.30 | 0.03 | 97 | 1017.2 |
| 20260831112252 | 20 | 90 | 0.0 | 0.0 | 0.00 | 1.30 | 0.03 | 97 | 1017.1 |
| 20260831111752 | 20 | 90 | 0.0 | 0.0 | 0.00 | 1.30 | 0.03 | 97 | 1017.1 |
| 20260831111252 | 20 | 90 | 0.0 | 0.0 | 0.00 | 1.30 | 0.03 | 97 | 1016.9 |
| 20260831110751 | 20 | 90 | 0.0 | 0.0 | 0.00 | 1.30 | 0.03 | 97 | 1017.0 |
| 20260831110251 | 20 | 90 | 0.0 | 0.0 | 0.00 | 1.30 | 0.03 | 97 | 1017.0 |
| 20260831105751 | 20 | 90 | 0.0 | 0.0 | 0.00 | 1.30 | 0.03 | 97 | 1017.0 |
| 20260831105251 | 20 | 90 | 0.0 | 0.0 | 0.00 | 1.30 | 0.03 | 97 | 1016.9 |
| 20260831104751 | 20 | 90 | 0.0 | 0.0 | 0.00 | 1.30 | 0.03 | 97 | 1016.9 |
| 20260831104252 | 20 | 90 | 0.0 | 0.0 | 0.00 | 1.30 | 0.03 | 97 | 1016.8 |
| 20260831103751 | 20 | 90 | 0.0 | 0.0 | 0.00 | 1.30 | 0.03 | 97 | 1016.7 |
| 20260831103251 | 20 | 90 | 0.0 | 0.0 | 0.00 | 1.30 | 0.03 | 97 | 1016.6 |
| 20260831102751 | 20 | 90 | 0.0 | 1.6 | 0.00 | 1.30 | 0.03 | 97 | 1016.6 |
| 20260831102315 | 20 | 90 | 0.0 | 1.6 | 0.00 | 1.30 | 0.03 | 97 | 1016.5 |
| 20260831102307 | 20 | 90 | 0.0 | 1.6 | 0.00 | 1.30 | 0.03 | 97 | 1016.6 |
| 20260831101251 | 20 | 90 | 0.0 | 0.0 | 0.00 | 1.30 | 0.03 | 97 | 1016.6 |
| 20260831100750 | 20 | 90 | 0.0 | 0.0 | 0.00 | 1.30 | 0.03 | 97 | 1016.6 |
| 20260831100251 | 20 | 90 | 0.0 | 0.0 | 0.00 | 1.30 | 0.03 | 97 | 1016.6 |
| 20260831095752 | 20 | 90 | 0.0 | 0.0 | 0.00 | 1.30 | 0.03 | 97 | 1016.6 |
| 20260831095251 | 20 | 90 | 0.0 | 0.0 | 0.00 | 1.30 | 0.03 | 97 | 1016.6 |
| 20260831094750 | 20 | 90 | 0.0 | 0.0 | 0.00 | 1.30 | 0.03 | 97 | 1016.6 |
| 20260831094251 | 20 | 90 | 0.0 | 0.0 | 0.00 | 1.30 | 0.03 | 97 | 1016.6 |
| 20260831093751 | 20 | 90 | 0.0 | 1.6 | 0.00 | 1.30 | 0.03 | 97 | 1016.5 |
| 20260831093250 | 20 | 90 | 0.0 | 1.6 | 0.00 | 1.30 | 0.03 | 97 | 1016.5 |
| 20260831092749 | 20 | 90 | 1.6 | 1.6 | 0.00 | 1.30 | 0.03 | 97 | 1016.4 |
| 20260831092249 | 20 | 90 | 0.0 | 0.0 | 0.00 | 1.30 | 0.03 | 97 | 1016.4 |
| 20260831091749 | 20 | 90 | 0.0 | 0.0 | 0.00 | 1.30 | 0.03 | 97 | 1016.3 |
| 20260831091532 | 20 | 90 | 0.0 | 0.0 | 0.03 | 1.30 | 0.03 | 97 | 1016.4 |
| 20260831090749 | 20 | 90 | 0.0 | 0.0 | 0.03 | 1.30 | 0.03 | 97 | 1016.4 |
| 20260831090251 | 20 | 90 | 0.0 | 0.0 | 0.03 | 1.30 | 0.03 | 97 | 1016.5 |
| 20260831085750 | 20 | 90 | 0.0 | 0.0 | 0.03 | 1.27 | 0.03 | 97 | 1016.5 |
| 20260831085247 | 20 | 90 | 0.0 | 0.0 | 0.03 | 1.27 | 0.03 | 97 | 1016.6 |
| 20260831084749 | 20 | 90 | 0.0 | 0.0 | 0.03 | 1.27 | 0.03 | 97 | 1016.5 |
| 20260831084250 | 20 | 90 | 0.0 | 0.0 | 0.03 | 1.27 | 0.03 | 97 | 1016.4 |
| 20260831083748 | 20 | 90 | 0.0 | 0.0 | 0.03 | 1.27 | 0.03 | 97 | 1016.4 |
| 20260831083532 | 20 | 90 | 0.0 | 0.0 | 0.03 | 1.27 | 0.03 | 97 | 1016.5 |
| 20260831082750 | 20 | 90 | 0.0 | 1.6 | 0.03 | 1.27 | 0.03 | 97 | 1016.4 |
| 20260831082248 | 20 | 90 | 0.0 | 3.2 | 0.03 | 1.27 | 0.03 | 97 | 1016.4 |
| 20260831081749 | 20 | 90 | 1.6 | 3.2 | 0.03 | 1.27 | 0.03 | 97 | 1016.4 |
| 20260831081248 | 20 | 90 | 1.6 | 3.2 | 0.00 | 1.27 | 0.00 | 97 | 1016.4 |
| 20260831080749 | 20 | 90 | 0.0 | 3.2 | 0.00 | 1.27 | 0.00 | 97 | 1016.3 |
| 20260831080248 | 20 | 92 | 0.0 | 0.0 | 0.00 | 1.27 | 0.00 | 97 | 1016.3 |
| 20260831075748 | 20 | 92 | 0.0 | 0.0 | 0.00 | 1.27 | 0.00 | 97 | 1016.1 |
| 20260831075247 | 20 | 92 | 0.0 | 0.0 | 0.00 | 1.27 | 0.00 | 96 | 1016.2 |
| 20260831074748 | 20 | 92 | 0.0 | 0.0 | 0.00 | 1.27 | 0.00 | 96 | 1016.1 |
| 20260831074247 | 20 | 92 | 0.0 | 0.0 | 0.00 | 1.27 | 0.00 | 96 | 1016.1 |
| 20260831073750 | 20 | 92 | 0.0 | 0.0 | 0.00 | 1.27 | 0.00 | 96 | 1016.2 |
| 20260831073248 | 20 | 92 | 0.0 | 0.0 | 0.00 | 1.27 | 0.00 | 96 | 1016.2 |
| 20260831072747 | 20 | 92 | 0.0 | 0.0 | 0.00 | 1.27 | 0.00 | 96 | 1016.2 |
| 20260831072247 | 20 | 92 | 0.0 | 0.0 | 0.00 | 1.27 | 0.00 | 96 | 1016.2 |
| 20260831071747 | 20 | 92 | 0.0 | 0.0 | 0.00 | 1.27 | 0.00 | 96 | 1016.2 |
| 20260831071248 | 20 | 92 | 0.0 | 0.0 | 0.00 | 1.27 | 0.00 | 96 | 1016.2 |
| 20260831070746 | 20 | 92 | 0.0 | 0.0 | 0.00 | 1.27 | 0.00 | 96 | 1016.2 |
| 20260831070249 | 20 | 92 | 0.0 | 0.0 | 0.00 | 1.27 | 0.00 | 96 | 1016.3 |
| 20260831065748 | 20 | 92 | 0.0 | 0.0 | 0.00 | 1.27 | 0.00 | 96 | 1016.3 |
| 20260831065248 | 20 | 92 | 0.0 | 0.0 | 0.00 | 1.27 | 0.00 | 96 | 1016.4 |
| 20260831064748 | 20 | 92 | 0.0 | 0.0 | 0.00 | 1.27 | 0.00 | 96 | 1016.3 |
| 20260831064246 | 20 | 92 | 0.0 | 0.0 | 0.00 | 1.27 | 0.00 | 96 | 1016.4 |
| 20260831064029 | 20 | 92 | 0.0 | 0.0 | 0.00 | 1.27 | 0.00 | 96 | 1016.4 |
| 20260831063525 | 20 | 92 | 0.0 | 0.0 | 0.00 | 1.27 | 0.00 | 96 | 1016.5 |
| 20260831062745 | 20 | 92 | 0.0 | 0.0 | 0.00 | 1.27 | 0.00 | 96 | 1016.5 |
| 20260831062248 | 20 | 92 | 0.0 | 0.0 | 0.00 | 1.27 | 0.00 | 96 | 1016.5 |
| 20260831061745 | 20 | 92 | 0.0 | 0.0 | 0.00 | 1.27 | 0.00 | 96 | 1016.4 |
| 20260831061246 | 20 | 92 | 0.0 | 0.0 | 0.00 | 1.27 | 0.00 | 96 | 1016.4 |
| 20260831061026 | 20 | 92 | 0.0 | 0.0 | 0.00 | 1.27 | 0.00 | 96 | 1016.4 |
| 20260831060245 | 20 | 92 | 0.0 | 0.0 | 0.00 | 1.27 | 0.00 | 96 | 1016.5 |
| 20260831055746 | 20 | 92 | 0.0 | 0.0 | 0.00 | 1.27 | 0.00 | 96 | 1016.5 |
| 20260831055244 | 20 | 92 | 0.0 | 0.0 | 0.00 | 1.27 | 0.00 | 96 | 1016.5 |
| 20260831054745 | 20 | 92 | 0.0 | 0.0 | 0.00 | 1.27 | 0.00 | 96 | 1016.6 |
| 20260831054245 | 20 | 92 | 0.0 | 0.0 | 0.00 | 1.27 | 0.00 | 96 | 1016.7 |
| 20260831053745 | 20 | 92 | 0.0 | 0.0 | 0.00 | 1.27 | 0.00 | 96 | 1016.7 |
| 20260831053246 | 20 | 92 | 0.0 | 0.0 | 0.00 | 1.27 | 0.00 | 96 | 1016.7 |
| 20260831052746 | 20 | 92 | 0.0 | 0.0 | 0.00 | 1.27 | 0.00 | 96 | 1016.7 |
| 20260831052244 | 20 | 92 | 0.0 | 0.0 | 0.00 | 1.27 | 0.00 | 96 | 1016.7 |
| 20260831052025 | 20 | 92 | 0.0 | 0.0 | 0.00 | 1.27 | 0.00 | 96 | 1016.8 |
| 20260831051244 | 20 | 92 | 0.0 | 0.0 | 0.00 | 1.27 | 0.00 | 96 | 1016.7 |
| 20260831050741 | 21 | 92 | 0.0 | 0.0 | 0.00 | 1.27 | 0.00 | 96 | 1016.7 |
| 20260831050238 | 21 | 92 | 0.0 | 0.0 | 0.00 | 1.27 | 0.00 | 96 | 1016.7 |
| 20260831045735 | 21 | 92 | 0.0 | 0.0 | 0.00 | 1.27 | 0.00 | 96 | 1016.8 |
| 20260831045233 | 21 | 92 | 0.0 | 1.6 | 0.00 | 1.27 | 0.00 | 96 | 1016.9 |
| 20260831044732 | 21 | 92 | 0.0 | 1.6 | 0.00 | 1.27 | 0.00 | 96 | 1016.9 |
| 20260831044231 | 21 | 92 | 1.6 | 1.6 | 0.00 | 1.27 | 0.00 | 96 | 1016.8 |
| 20260831043732 | 21 | 92 | 0.0 | 0.0 | 0.00 | 1.27 | 0.00 | 96 | 1016.8 |
| 20260831043230 | 21 | 92 | 0.0 | 0.0 | 0.00 | 1.27 | 0.00 | 96 | 1016.8 |
| 20260831042731 | 21 | 92 | 0.0 | 0.0 | 0.00 | 1.27 | 0.00 | 96 | 1016.8 |
| 20260831042232 | 21 | 92 | 0.0 | 0.0 | 0.00 | 1.27 | 0.00 | 96 | 1016.9 |
| 20260831041731 | 21 | 92 | 0.0 | 0.0 | 0.00 | 1.27 | 0.00 | 96 | 1016.9 |
| 20260831041232 | 21 | 92 | 0.0 | 0.0 | 0.00 | 1.27 | 0.00 | 96 | 1017.0 |
| 20260831041013 | 21 | 92 | 0.0 | 0.0 | 0.00 | 1.27 | 0.00 | 96 | 1017.0 |
| 20260831040232 | 21 | 92 | 0.0 | 0.0 | 0.00 | 1.27 | 0.00 | 96 | 1017.0 |
| 20260831035732 | 21 | 92 | 0.0 | 0.0 | 0.00 | 1.27 | 1.27 | 96 | 1017.1 |
| 20260831035232 | 21 | 92 | 0.0 | 0.0 | 0.00 | 1.27 | 1.27 | 96 | 1017.2 |
| 20260831034732 | 21 | 92 | 0.0 | 0.0 | 0.00 | 1.27 | 1.27 | 96 | 1017.2 |
| 20260831034232 | 21 | 92 | 0.0 | 0.0 | 0.00 | 1.27 | 1.27 | 96 | 1017.1 |
| 20260831033732 | 21 | 92 | 0.0 | 0.0 | 0.00 | 1.27 | 1.27 | 96 | 1017.1 |
| 20260831033233 | 21 | 92 | 0.0 | 0.0 | 0.00 | 1.27 | 1.27 | 96 | 1017.1 |
| 20260831032730 | 21 | 92 | 0.0 | 0.0 | 0.00 | 1.27 | 1.27 | 96 | 1017.1 |
| 20260831032233 | 21 | 92 | 0.0 | 0.0 | 0.00 | 1.27 | 1.27 | 96 | 1017.0 |
| 20260831031732 | 21 | 92 | 0.0 | 0.0 | 0.00 | 1.27 | 1.27 | 96 | 1016.9 |
| 20260831031535 | 21 | 92 | 0.0 | 0.0 | 0.00 | 1.27 | 1.27 | 96 | 1017.1 |
| 20260831031247 | 21 | 92 | 0.0 | 0.0 | 0.00 | 1.27 | 1.27 | 96 | 1017.0 |
| 20260831030231 | 21 | 92 | 0.0 | 0.0 | 0.00 | 1.27 | 1.27 | 96 | 1017.1 |
| 20260831025731 | 21 | 92 | 0.0 | 0.0 | 0.00 | 1.27 | 1.27 | 95 | 1017.1 |
| 20260831025231 | 21 | 92 | 0.0 | 0.0 | 0.00 | 1.27 | 1.27 | 95 | 1017.2 |
| 20260831024731 | 21 | 92 | 0.0 | 0.0 | 0.00 | 1.27 | 1.27 | 95 | 1017.2 |
| 20260831024233 | 21 | 92 | 0.0 | 0.0 | 0.03 | 1.27 | 1.27 | 95 | 1017.2 |
| 20260831023731 | 21 | 92 | 0.0 | 0.0 | 0.03 | 1.27 | 1.27 | 95 | 1017.3 |
| 20260831023232 | 21 | 92 | 0.0 | 0.0 | 0.05 | 1.27 | 1.27 | 95 | 1017.5 |
| 20260831022731 | 21 | 92 | 0.0 | 0.0 | 0.05 | 1.27 | 1.27 | 95 | 1017.4 |
| 20260831022513 | 21 | 92 | 0.0 | 0.0 | 0.08 | 1.27 | 1.27 | 95 | 1017.5 |
| 20260831021731 | 21 | 92 | 0.0 | 0.0 | 0.10 | 1.27 | 1.27 | 95 | 1017.5 |
| 20260831021232 | 21 | 92 | 0.0 | 0.0 | 0.10 | 1.27 | 1.27 | 95 | 1017.4 |
| 20260831021011 | 21 | 92 | 0.0 | 0.0 | 0.13 | 1.27 | 1.27 | 95 | 1017.4 |
| 20260831020231 | 21 | 92 | 0.0 | 1.6 | 0.15 | 1.27 | 1.27 | 95 | 1017.6 |
| 20260831015732 | 21 | 92 | 0.0 | 1.6 | 0.18 | 1.09 | 1.27 | 95 | 1017.6 |
| 20260831015232 | 21 | 92 | 0.0 | 0.0 | 0.20 | 1.09 | 1.27 | 95 | 1017.5 |
| 20260831015013 | 21 | 92 | 0.0 | 0.0 | 0.25 | 1.09 | 1.27 | 95 | 1017.5 |
| 20260831014511 | 21 | 92 | 0.0 | 0.0 | 0.25 | 1.09 | 1.24 | 95 | 1017.5 |
| 20260831013708 | 21 | 92 | 0.0 | 0.0 | 0.30 | 1.09 | 1.24 | 95 | 1017.6 |
| 20260831013208 | 21 | 92 | 0.0 | 1.6 | 0.30 | 1.09 | 1.22 | 95 | 1017.5 |
| 20260831012946 | 21 | 92 | 0.0 | 1.6 | 0.36 | 1.09 | 1.22 | 95 | 1017.5 |
| 20260831012445 | 21 | 92 | 0.0 | 1.6 | 0.38 | 1.09 | 1.19 | 95 | 1017.6 |
| 20260831011704 | 21 | 92 | 0.0 | 0.0 | 0.41 | 1.09 | 1.17 | 95 | 1017.5 |
| 20260831011203 | 21 | 92 | 0.0 | 0.0 | 0.48 | 1.09 | 1.14 | 95 | 1017.4 |
| 20260831010941 | 21 | 92 | 0.0 | 0.0 | 0.53 | 1.09 | 1.12 | 95 | 1017.4 |
| 20260831010203 | 21 | 92 | 0.0 | 0.0 | 0.58 | 1.09 | 1.12 | 95 | 1017.2 |
| 20260831005942 | 21 | 92 | 0.0 | 0.0 | 0.64 | 0.51 | 1.07 | 94 | 1017.1 |
| 20260831005441 | 21 | 92 | 0.0 | 0.0 | 0.71 | 0.51 | 1.04 | 94 | 1017.1 |
| 20260831004703 | 22 | 92 | 0.0 | 0.0 | 0.76 | 0.51 | 1.02 | 94 | 1017.0 |
| 20260831004203 | 22 | 92 | 0.0 | 0.0 | 0.84 | 0.51 | 0.97 | 94 | 1017.0 |
| 20260831003702 | 22 | 92 | 0.0 | 0.0 | 0.89 | 0.51 | 0.94 | 94 | 1017.0 |
| 20260831003202 | 22 | 92 | 0.0 | 3.2 | 0.91 | 0.51 | 0.89 | 94 | 1017.0 |
| 20260831002705 | 22 | 92 | 0.0 | 3.2 | 0.86 | 0.51 | 0.84 | 94 | 1017.0 |
| 20260831002201 | 21 | 92 | 0.0 | 1.6 | 0.81 | 0.51 | 0.79 | 94 | 1017.0 |